画面更新(UTC): 2026-09-03 13:02:34.873 — この時刻は5秒ごとに更新されます。
全SOAP通信合計 3372 件(5秒ごと自動更新。/health=JSON)
制御要求ポーリング(GetRequests): 1065件/最終成功 2026-09-03 13:01:40.594 UTC — 監視データのみ表示
| オペレーション | 件数 | 最終受信(UTC) |
|---|---|---|
| ? | 5 | 2026-09-03 08:42:36.933 |
| Alerts | 21 | 2026-08-29 10:32:20.479 |
| ControlValue_CS | 61 | 2026-09-03 12:59:40.077 |
| ControlValue_RHCS | 61 | 2026-09-03 12:59:40.093 |
| DeviceStatus | 171 | 2026-09-03 12:59:40.210 |
| EquipmentOpState | 244 | 2026-09-03 12:59:40.180 |
| Flow_Sensors | 61 | 2026-09-03 12:59:40.053 |
| GetRequests | 1065 | 2026-09-03 13:01:40.594 |
| Location_Logs | 1 | 2026-08-29 08:45:40.593 |
| Other_ControlValue | 61 | 2026-09-03 12:59:40.107 |
| Pressure_sensors | 61 | 2026-09-03 12:59:40.034 |
| RecoverAlerts | 69 | 2026-08-29 10:32:20.418 |
| RelativeHumidity_Sensors | 62 | 2026-09-03 12:59:40.021 |
| ReportLogs | 1 | 2026-08-29 11:03:26.934 |
| SensorDefinitions | 4 | 2026-08-29 12:26:46.101 |
| SensorValues | 1302 | 2026-09-03 13:01:40.575 |
| SuctionGasCompressor | 61 | 2026-09-03 12:59:40.195 |
| Temperature_sensors | 61 | 2026-09-03 12:59:39.995 |
| # | 受信時刻(UTC) | オペレーション | 引数 |
|---|---|---|---|
| 3372 | 2026-09-03 13:01:40.594 | GetRequests | {"containerID": "DEV20260001"} |
| 3371 | 2026-09-03 13:01:40.575 | SensorValues | {"containerID": "DEV20260001", "key": "energy", "value": "0.013", "timeStamp": "2026-09-03 13:01:01.976"} |
| 3370 | 2026-09-03 13:01:40.541 | SensorValues | {"containerID": "DEV20260001", "key": "power", "value": "-0.1", "timeStamp": "2026-09-03 13:01:01.976"} |
| 3369 | 2026-09-03 13:01:40.526 | SensorValues | {"containerID": "DEV20260001", "key": "voltage", "value": "100.3", "timeStamp": "2026-09-03 13:01:01.976"} |
| 3368 | 2026-09-03 13:01:40.514 | SensorValues | {"containerID": "DEV20260001", "key": "current", "value": "0.025", "timeStamp": "2026-09-03 13:01:01.976"} |
| 3367 | 2026-09-03 13:01:40.500 | SensorValues | {"containerID": "DEV20260001", "key": "power_factor", "value": "-0.01", "timeStamp": "2026-09-03 13:01:01.976"} |
| 3366 | 2026-09-03 13:01:40.477 | SensorValues | {"containerID": "DEV20260001", "key": "frequency", "value": "50.0", "timeStamp": "2026-09-03 13:01:01.976"} |
| 3365 | 2026-09-03 13:01:40.443 | SensorValues | {"containerID": "DEV20260001", "key": "status", "value": "44", "timeStamp": "2026-09-03 13:01:01.976"} |
| 3364 | 2026-09-03 13:00:40.311 | GetRequests | {"containerID": "DEV20260001"} |
| 3363 | 2026-09-03 12:59:40.223 | GetRequests | {"containerID": "DEV20260001"} |
| 3362 | 2026-09-03 12:59:40.210 | DeviceStatus | {"containerID": "DEV20260001", "status": "{\"backlog\":12,\"cpu_load\":9.1,\"disk_used\":0.6,\"link\":{\"board\":1,\"gps\":0,\"powermeter\":1},\"mem_used\":9.0,\"ntp_sync\":1,\"restart_count\":0,\"sw_version\":\"0.1.0-dev\",\"uptime_h\":123.2}", "timeStamp": "2026-09-03 12:59:27.647"} |
| 3361 | 2026-09-03 12:59:40.195 | SuctionGasCompressor | {"containerID": "DEV20260001", "set": "7.0", "present": "7.2", "output": "51.5", "timestamp": "2026-09-03 12:59:27.167"} |
| 3360 | 2026-09-03 12:59:40.180 | EquipmentOpState | {"containerID": "DEV20260001", "L_RCM": "0", "C_RCM": "0", "V_RCM": "0", "E_RCM": "0", "L_CPU": "0", "C_CPU": "0", "V_CPU": "0", "E_CPU": "0", "MV_FCN": "0", "PV_FCN1": "0", "PV_FCN2": "0", "PV_FCN3": "0", "MV_FAC": "58.6", "PV_FAC1": "57.8", "PV_FAC2": "58.6", "PV_FAC3": "59.3", "timeStamp": "2026-09-03 12:59:26.966", "cmndtype": "FAC"} |
| 3359 | 2026-09-03 12:59:40.150 | EquipmentOpState | {"containerID": "DEV20260001", "L_RCM": "0", "C_RCM": "0", "V_RCM": "0", "E_RCM": "0", "L_CPU": "0", "C_CPU": "0", "V_CPU": "0", "E_CPU": "0", "MV_FCN": "57.3", "PV_FCN1": "56.3", "PV_FCN2": "57.2", "PV_FCN3": "58.6", "MV_FAC": "0", "PV_FAC1": "0", "PV_FAC2": "0", "PV_FAC3": "0", "timeStamp": "2026-09-03 12:59:26.901", "cmndtype": "FCN"} |
| 3358 | 2026-09-03 12:59:40.136 | EquipmentOpState | {"containerID": "DEV20260001", "L_RCM": "0", "C_RCM": "0", "V_RCM": "0", "E_RCM": "0", "L_CPU": "48.5", "C_CPU": "1.76", "V_CPU": "201", "E_CPU": "255", "MV_FCN": "0", "PV_FCN1": "0", "PV_FCN2": "0", "PV_FCN3": "0", "MV_FAC": "0", "PV_FAC1": "0", "PV_FAC2": "0", "PV_FAC3": "0", "timeStamp": "2026-09-03 12:59:26.823", "cmndtype": "CPU"} |
| 3357 | 2026-09-03 12:59:40.121 | EquipmentOpState | {"containerID": "DEV20260001", "L_RCM": "59.5", "C_RCM": "5.57", "V_RCM": "201", "E_RCM": "930", "L_CPU": "0", "C_CPU": "0", "V_CPU": "0", "E_CPU": "0", "MV_FCN": "0", "PV_FCN1": "0", "PV_FCN2": "0", "PV_FCN3": "0", "MV_FAC": "0", "PV_FAC1": "0", "PV_FAC2": "0", "PV_FAC3": "0", "timeStamp": "2026-09-03 12:59:26.747", "cmndtype": "RCM"} |
| 3356 | 2026-09-03 12:59:40.107 | Other_ControlValue | {"containerID": "DEV20260001", "ls_Door": "1", "mode_CS": "N", "DF_PLHX": "0", "c_Move": "1", "timeStamp": "2026-09-03 12:59:27.231"} |
| 3355 | 2026-09-03 12:59:40.093 | ControlValue_RHCS | {"containerID": "DEV20260001", "SV_RHCS": "90.0", "PV_RHCS": "86.2", "MV_FAC": "58.6", "MV_CVCW": "44.3", "timeStamp": "2026-09-03 12:59:27.092"} |
| 3354 | 2026-09-03 12:59:40.077 | ControlValue_CS | {"containerID": "DEV20260001", "SV_CS": "2.0", "PV_CS": "1.9", "MV_CS": "59.5", "timeStamp": "2026-09-03 12:59:27.029"} |
| 3353 | 2026-09-03 12:59:40.053 | Flow_Sensors | {"containerID": "DEV20260001", "fe01": "19", "timestamp": "2026-09-03 12:59:26.684"} |
| 3352 | 2026-09-03 12:59:40.034 | Pressure_sensors | {"containerID": "DEV20260001", "pe01": "335", "pe02": "1616", "timestamp": "2026-09-03 12:59:26.606"} |
| 3351 | 2026-09-03 12:59:40.021 | RelativeHumidity_Sensors | {"containerID": "DEV20260001", "rh01": "86.2", "timestamp": "2026-09-03 12:59:26.527"} |
| 3350 | 2026-09-03 12:59:39.995 | Temperature_sensors | {"containerID": "DEV20260001", "te01": "1.9", "te02": "0.7", "te03": "2.7", "te04": "3.1", "te05": "28.9", "te06": "7.4", "te07": "60.2", "timestamp": "2026-09-03 12:59:26.450"} |
| 3349 | 2026-09-03 12:58:39.878 | GetRequests | {"containerID": "DEV20260001"} |
| 3348 | 2026-09-03 12:57:39.772 | GetRequests | {"containerID": "DEV20260001"} |
| 3347 | 2026-09-03 12:56:39.683 | GetRequests | {"containerID": "DEV20260001"} |
| 3346 | 2026-09-03 12:56:39.668 | SensorValues | {"containerID": "DEV20260001", "key": "energy", "value": "0.013", "timeStamp": "2026-09-03 12:56:00.518"} |
| 3345 | 2026-09-03 12:56:39.655 | SensorValues | {"containerID": "DEV20260001", "key": "power", "value": "0.1", "timeStamp": "2026-09-03 12:56:00.518"} |
| 3344 | 2026-09-03 12:56:39.637 | SensorValues | {"containerID": "DEV20260001", "key": "voltage", "value": "100.3", "timeStamp": "2026-09-03 12:56:00.518"} |
| 3343 | 2026-09-03 12:56:39.625 | SensorValues | {"containerID": "DEV20260001", "key": "current", "value": "0.032", "timeStamp": "2026-09-03 12:56:00.518"} |
| 3342 | 2026-09-03 12:56:39.603 | SensorValues | {"containerID": "DEV20260001", "key": "power_factor", "value": "0.01", "timeStamp": "2026-09-03 12:56:00.518"} |
| 3341 | 2026-09-03 12:56:39.588 | SensorValues | {"containerID": "DEV20260001", "key": "frequency", "value": "50.0", "timeStamp": "2026-09-03 12:56:00.518"} |
| 3340 | 2026-09-03 12:56:39.563 | SensorValues | {"containerID": "DEV20260001", "key": "status", "value": "44", "timeStamp": "2026-09-03 12:56:00.518"} |
| 3339 | 2026-09-03 12:55:39.456 | GetRequests | {"containerID": "DEV20260001"} |
| 3338 | 2026-09-03 12:54:39.368 | GetRequests | {"containerID": "DEV20260001"} |
| 3337 | 2026-09-03 12:54:39.355 | DeviceStatus | {"containerID": "DEV20260001", "status": "{\"backlog\":12,\"cpu_load\":0.0,\"disk_used\":0.6,\"link\":{\"board\":1,\"gps\":0,\"powermeter\":1},\"mem_used\":9.0,\"ntp_sync\":1,\"restart_count\":0,\"sw_version\":\"0.1.0-dev\",\"uptime_h\":123.2}", "timeStamp": "2026-09-03 12:54:27.642"} |
| 3336 | 2026-09-03 12:54:39.340 | SuctionGasCompressor | {"containerID": "DEV20260001", "set": "7.0", "present": "6.9", "output": "49.5", "timestamp": "2026-09-03 12:54:17.194"} |
| 3335 | 2026-09-03 12:54:39.322 | EquipmentOpState | {"containerID": "DEV20260001", "L_RCM": "0", "C_RCM": "0", "V_RCM": "0", "E_RCM": "0", "L_CPU": "0", "C_CPU": "0", "V_CPU": "0", "E_CPU": "0", "MV_FCN": "0", "PV_FCN1": "0", "PV_FCN2": "0", "PV_FCN3": "0", "MV_FAC": "57.8", "PV_FAC1": "56.9", "PV_FAC2": "57.8", "PV_FAC3": "58.5", "timeStamp": "2026-09-03 12:54:16.971", "cmndtype": "FAC"} |
| 3334 | 2026-09-03 12:54:39.305 | EquipmentOpState | {"containerID": "DEV20260001", "L_RCM": "0", "C_RCM": "0", "V_RCM": "0", "E_RCM": "0", "L_CPU": "0", "C_CPU": "0", "V_CPU": "0", "E_CPU": "0", "MV_FCN": "55.2", "PV_FCN1": "53.9", "PV_FCN2": "55.0", "PV_FCN3": "56.2", "MV_FAC": "0", "PV_FAC1": "0", "PV_FAC2": "0", "PV_FAC3": "0", "timeStamp": "2026-09-03 12:54:16.891", "cmndtype": "FCN"} |
| 3333 | 2026-09-03 12:54:39.292 | EquipmentOpState | {"containerID": "DEV20260001", "L_RCM": "0", "C_RCM": "0", "V_RCM": "0", "E_RCM": "0", "L_CPU": "47.2", "C_CPU": "1.66", "V_CPU": "201", "E_CPU": "239", "MV_FCN": "0", "PV_FCN1": "0", "PV_FCN2": "0", "PV_FCN3": "0", "MV_FAC": "0", "PV_FAC1": "0", "PV_FAC2": "0", "PV_FAC3": "0", "timeStamp": "2026-09-03 12:54:16.814", "cmndtype": "CPU"} |
| 3332 | 2026-09-03 12:54:39.276 | EquipmentOpState | {"containerID": "DEV20260001", "L_RCM": "56.9", "C_RCM": "5.17", "V_RCM": "201", "E_RCM": "861", "L_CPU": "0", "C_CPU": "0", "V_CPU": "0", "E_CPU": "0", "MV_FCN": "0", "PV_FCN1": "0", "PV_FCN2": "0", "PV_FCN3": "0", "MV_FAC": "0", "PV_FAC1": "0", "PV_FAC2": "0", "PV_FAC3": "0", "timeStamp": "2026-09-03 12:54:16.738", "cmndtype": "RCM"} |
| 3331 | 2026-09-03 12:54:39.257 | Other_ControlValue | {"containerID": "DEV20260001", "ls_Door": "1", "mode_CS": "L", "DF_PLHX": "0", "c_Move": "1", "timeStamp": "2026-09-03 12:54:17.258"} |
| 3330 | 2026-09-03 12:54:39.242 | ControlValue_RHCS | {"containerID": "DEV20260001", "SV_RHCS": "90.0", "PV_RHCS": "86.8", "MV_FAC": "57.8", "MV_CVCW": "41.5", "timeStamp": "2026-09-03 12:54:17.115"} |
| 3329 | 2026-09-03 12:54:39.222 | ControlValue_CS | {"containerID": "DEV20260001", "SV_CS": "2.0", "PV_CS": "1.9", "MV_CS": "56.9", "timeStamp": "2026-09-03 12:54:17.050"} |
| 3328 | 2026-09-03 12:54:39.208 | Flow_Sensors | {"containerID": "DEV20260001", "fe01": "19", "timestamp": "2026-09-03 12:54:16.674"} |
| 3327 | 2026-09-03 12:54:39.193 | Pressure_sensors | {"containerID": "DEV20260001", "pe01": "332", "pe02": "1609", "timestamp": "2026-09-03 12:54:16.610"} |
| 3326 | 2026-09-03 12:54:39.178 | RelativeHumidity_Sensors | {"containerID": "DEV20260001", "rh01": "86.8", "timestamp": "2026-09-03 12:54:16.532"} |
| 3325 | 2026-09-03 12:54:39.150 | Temperature_sensors | {"containerID": "DEV20260001", "te01": "1.9", "te02": "0.8", "te03": "2.8", "te04": "3.2", "te05": "29.4", "te06": "7.4", "te07": "59.8", "timestamp": "2026-09-03 12:54:16.453"} |
| 3324 | 2026-09-03 12:53:39.038 | GetRequests | {"containerID": "DEV20260001"} |
| 3323 | 2026-09-03 12:52:38.914 | GetRequests | {"containerID": "DEV20260001"} |
| 3322 | 2026-09-03 12:51:38.831 | GetRequests | {"containerID": "DEV20260001"} |
| 3321 | 2026-09-03 12:51:38.808 | SensorValues | {"containerID": "DEV20260001", "key": "energy", "value": "0.013", "timeStamp": "2026-09-03 12:50:59.103"} |
| 3320 | 2026-09-03 12:51:38.793 | SensorValues | {"containerID": "DEV20260001", "key": "power", "value": "0.0", "timeStamp": "2026-09-03 12:50:59.103"} |
| 3319 | 2026-09-03 12:51:38.770 | SensorValues | {"containerID": "DEV20260001", "key": "voltage", "value": "100.8", "timeStamp": "2026-09-03 12:50:59.103"} |
| 3318 | 2026-09-03 12:51:38.758 | SensorValues | {"containerID": "DEV20260001", "key": "current", "value": "0.028", "timeStamp": "2026-09-03 12:50:59.103"} |
| 3317 | 2026-09-03 12:51:38.744 | SensorValues | {"containerID": "DEV20260001", "key": "power_factor", "value": "0.00", "timeStamp": "2026-09-03 12:50:59.103"} |
| 3316 | 2026-09-03 12:51:38.724 | SensorValues | {"containerID": "DEV20260001", "key": "frequency", "value": "50.0", "timeStamp": "2026-09-03 12:50:59.103"} |
| 3315 | 2026-09-03 12:51:38.690 | SensorValues | {"containerID": "DEV20260001", "key": "status", "value": "44", "timeStamp": "2026-09-03 12:50:59.103"} |
| 3314 | 2026-09-03 12:50:38.591 | GetRequests | {"containerID": "DEV20260001"} |
| 3313 | 2026-09-03 12:49:38.499 | GetRequests | {"containerID": "DEV20260001"} |
| 3312 | 2026-09-03 12:49:38.487 | DeviceStatus | {"containerID": "DEV20260001", "status": "{\"backlog\":12,\"cpu_load\":0.0,\"disk_used\":0.6,\"link\":{\"board\":1,\"gps\":0,\"powermeter\":1},\"mem_used\":9.0,\"ntp_sync\":1,\"restart_count\":0,\"sw_version\":\"0.1.0-dev\",\"uptime_h\":123.1}", "timeStamp": "2026-09-03 12:49:27.637"} |
| 3311 | 2026-09-03 12:49:38.473 | SuctionGasCompressor | {"containerID": "DEV20260001", "set": "7.0", "present": "6.6", "output": "49.8", "timestamp": "2026-09-03 12:49:07.148"} |
| 3310 | 2026-09-03 12:49:38.459 | EquipmentOpState | {"containerID": "DEV20260001", "L_RCM": "0", "C_RCM": "0", "V_RCM": "0", "E_RCM": "0", "L_CPU": "0", "C_CPU": "0", "V_CPU": "0", "E_CPU": "0", "MV_FCN": "0", "PV_FCN1": "0", "PV_FCN2": "0", "PV_FCN3": "0", "MV_FAC": "57.8", "PV_FAC1": "57.1", "PV_FAC2": "57.7", "PV_FAC3": "58.4", "timeStamp": "2026-09-03 12:49:06.916", "cmndtype": "FAC"} |
| 3309 | 2026-09-03 12:49:38.445 | EquipmentOpState | {"containerID": "DEV20260001", "L_RCM": "0", "C_RCM": "0", "V_RCM": "0", "E_RCM": "0", "L_CPU": "0", "C_CPU": "0", "V_CPU": "0", "E_CPU": "0", "MV_FCN": "55.6", "PV_FCN1": "54.2", "PV_FCN2": "55.6", "PV_FCN3": "56.6", "MV_FAC": "0", "PV_FAC1": "0", "PV_FAC2": "0", "PV_FAC3": "0", "timeStamp": "2026-09-03 12:49:06.837", "cmndtype": "FCN"} |
| 3308 | 2026-09-03 12:49:38.431 | EquipmentOpState | {"containerID": "DEV20260001", "L_RCM": "0", "C_RCM": "0", "V_RCM": "0", "E_RCM": "0", "L_CPU": "47.2", "C_CPU": "1.66", "V_CPU": "200", "E_CPU": "239", "MV_FCN": "0", "PV_FCN1": "0", "PV_FCN2": "0", "PV_FCN3": "0", "MV_FAC": "0", "PV_FAC1": "0", "PV_FAC2": "0", "PV_FAC3": "0", "timeStamp": "2026-09-03 12:49:06.761", "cmndtype": "CPU"} |
| 3307 | 2026-09-03 12:49:38.417 | EquipmentOpState | {"containerID": "DEV20260001", "L_RCM": "56.8", "C_RCM": "5.18", "V_RCM": "200", "E_RCM": "861", "L_CPU": "0", "C_CPU": "0", "V_CPU": "0", "E_CPU": "0", "MV_FCN": "0", "PV_FCN1": "0", "PV_FCN2": "0", "PV_FCN3": "0", "MV_FAC": "0", "PV_FAC1": "0", "PV_FAC2": "0", "PV_FAC3": "0", "timeStamp": "2026-09-03 12:49:06.699", "cmndtype": "RCM"} |
| 3306 | 2026-09-03 12:49:38.404 | Other_ControlValue | {"containerID": "DEV20260001", "ls_Door": "1", "mode_CS": "L", "DF_PLHX": "0", "c_Move": "1", "timeStamp": "2026-09-03 12:49:07.226"} |
| 3305 | 2026-09-03 12:49:38.385 | ControlValue_RHCS | {"containerID": "DEV20260001", "SV_RHCS": "90.0", "PV_RHCS": "87.1", "MV_FAC": "57.8", "MV_CVCW": "39.9", "timeStamp": "2026-09-03 12:49:07.070"} |
| 3304 | 2026-09-03 12:49:38.372 | ControlValue_CS | {"containerID": "DEV20260001", "SV_CS": "2.0", "PV_CS": "2.0", "MV_CS": "56.8", "timeStamp": "2026-09-03 12:49:06.993"} |
| 3303 | 2026-09-03 12:49:38.357 | Flow_Sensors | {"containerID": "DEV20260001", "fe01": "19", "timestamp": "2026-09-03 12:49:06.636"} |
| 3302 | 2026-09-03 12:49:38.343 | Pressure_sensors | {"containerID": "DEV20260001", "pe01": "332", "pe02": "1619", "timestamp": "2026-09-03 12:49:06.560"} |
| 3301 | 2026-09-03 12:49:38.328 | RelativeHumidity_Sensors | {"containerID": "DEV20260001", "rh01": "87.1", "timestamp": "2026-09-03 12:49:06.498"} |
| 3300 | 2026-09-03 12:49:38.303 | Temperature_sensors | {"containerID": "DEV20260001", "te01": "2.0", "te02": "0.9", "te03": "2.9", "te04": "3.3", "te05": "29.8", "te06": "7.4", "te07": "59.9", "timestamp": "2026-09-03 12:49:06.434"} |
| 3299 | 2026-09-03 12:48:38.186 | GetRequests | {"containerID": "DEV20260001"} |
| 3298 | 2026-09-03 12:47:38.084 | GetRequests | {"containerID": "DEV20260001"} |
| 3297 | 2026-09-03 12:46:38.011 | GetRequests | {"containerID": "DEV20260001"} |
| 3296 | 2026-09-03 12:46:37.988 | SensorValues | {"containerID": "DEV20260001", "key": "energy", "value": "0.013", "timeStamp": "2026-09-03 12:45:57.689"} |
| 3295 | 2026-09-03 12:46:37.976 | SensorValues | {"containerID": "DEV20260001", "key": "power", "value": "0.1", "timeStamp": "2026-09-03 12:45:57.689"} |
| 3294 | 2026-09-03 12:46:37.963 | SensorValues | {"containerID": "DEV20260001", "key": "voltage", "value": "100.9", "timeStamp": "2026-09-03 12:45:57.689"} |
| 3293 | 2026-09-03 12:46:37.948 | SensorValues | {"containerID": "DEV20260001", "key": "current", "value": "0.027", "timeStamp": "2026-09-03 12:45:57.689"} |
| 3292 | 2026-09-03 12:46:37.934 | SensorValues | {"containerID": "DEV20260001", "key": "power_factor", "value": "0.01", "timeStamp": "2026-09-03 12:45:57.689"} |
| 3291 | 2026-09-03 12:46:37.923 | SensorValues | {"containerID": "DEV20260001", "key": "frequency", "value": "50.0", "timeStamp": "2026-09-03 12:45:57.689"} |
| 3290 | 2026-09-03 12:46:37.893 | SensorValues | {"containerID": "DEV20260001", "key": "status", "value": "44", "timeStamp": "2026-09-03 12:45:57.689"} |
| 3289 | 2026-09-03 12:45:37.788 | GetRequests | {"containerID": "DEV20260001"} |
| 3288 | 2026-09-03 12:44:37.698 | GetRequests | {"containerID": "DEV20260001"} |
| 3287 | 2026-09-03 12:44:37.676 | DeviceStatus | {"containerID": "DEV20260001", "status": "{\"backlog\":12,\"cpu_load\":0.0,\"disk_used\":0.6,\"link\":{\"board\":1,\"gps\":0,\"powermeter\":1},\"mem_used\":9.0,\"ntp_sync\":1,\"restart_count\":0,\"sw_version\":\"0.1.0-dev\",\"uptime_h\":123.0}", "timeStamp": "2026-09-03 12:44:27.631"} |
| 3286 | 2026-09-03 12:44:37.661 | SuctionGasCompressor | {"containerID": "DEV20260001", "set": "7.0", "present": "6.5", "output": "50.7", "timestamp": "2026-09-03 12:43:57.164"} |
| 3285 | 2026-09-03 12:44:37.646 | EquipmentOpState | {"containerID": "DEV20260001", "L_RCM": "0", "C_RCM": "0", "V_RCM": "0", "E_RCM": "0", "L_CPU": "0", "C_CPU": "0", "V_CPU": "0", "E_CPU": "0", "MV_FCN": "0", "PV_FCN1": "0", "PV_FCN2": "0", "PV_FCN3": "0", "MV_FAC": "58.4", "PV_FAC1": "57.6", "PV_FAC2": "58.4", "PV_FAC3": "59.1", "timeStamp": "2026-09-03 12:43:56.933", "cmndtype": "FAC"} |
| 3284 | 2026-09-03 12:44:37.628 | EquipmentOpState | {"containerID": "DEV20260001", "L_RCM": "0", "C_RCM": "0", "V_RCM": "0", "E_RCM": "0", "L_CPU": "0", "C_CPU": "0", "V_CPU": "0", "E_CPU": "0", "MV_FCN": "58.0", "PV_FCN1": "56.7", "PV_FCN2": "58.0", "PV_FCN3": "58.9", "MV_FAC": "0", "PV_FAC1": "0", "PV_FAC2": "0", "PV_FAC3": "0", "timeStamp": "2026-09-03 12:43:56.870", "cmndtype": "FCN"} |
| 3283 | 2026-09-03 12:44:37.612 | EquipmentOpState | {"containerID": "DEV20260001", "L_RCM": "0", "C_RCM": "0", "V_RCM": "0", "E_RCM": "0", "L_CPU": "48.1", "C_CPU": "1.74", "V_CPU": "200", "E_CPU": "250", "MV_FCN": "0", "PV_FCN1": "0", "PV_FCN2": "0", "PV_FCN3": "0", "MV_FAC": "0", "PV_FAC1": "0", "PV_FAC2": "0", "PV_FAC3": "0", "timeStamp": "2026-09-03 12:43:56.806", "cmndtype": "CPU"} |
| 3282 | 2026-09-03 12:44:37.597 | EquipmentOpState | {"containerID": "DEV20260001", "L_RCM": "58.7", "C_RCM": "5.45", "V_RCM": "200", "E_RCM": "903", "L_CPU": "0", "C_CPU": "0", "V_CPU": "0", "E_CPU": "0", "MV_FCN": "0", "PV_FCN1": "0", "PV_FCN2": "0", "PV_FCN3": "0", "MV_FAC": "0", "PV_FAC1": "0", "PV_FAC2": "0", "PV_FAC3": "0", "timeStamp": "2026-09-03 12:43:56.728", "cmndtype": "RCM"} |
| 3281 | 2026-09-03 12:44:37.570 | Other_ControlValue | {"containerID": "DEV20260001", "ls_Door": "1", "mode_CS": "L", "DF_PLHX": "0", "c_Move": "1", "timeStamp": "2026-09-03 12:43:57.244"} |
| 3280 | 2026-09-03 12:44:37.556 | ControlValue_RHCS | {"containerID": "DEV20260001", "SV_RHCS": "90.0", "PV_RHCS": "87.8", "MV_FAC": "58.4", "MV_CVCW": "37.4", "timeStamp": "2026-09-03 12:43:57.087"} |
| 3279 | 2026-09-03 12:44:37.536 | ControlValue_CS | {"containerID": "DEV20260001", "SV_CS": "2.0", "PV_CS": "2.1", "MV_CS": "58.7", "timeStamp": "2026-09-03 12:43:57.009"} |
| 3278 | 2026-09-03 12:44:37.523 | Flow_Sensors | {"containerID": "DEV20260001", "fe01": "19", "timestamp": "2026-09-03 12:43:56.650"} |
| 3277 | 2026-09-03 12:44:37.508 | Pressure_sensors | {"containerID": "DEV20260001", "pe01": "336", "pe02": "1642", "timestamp": "2026-09-03 12:43:56.571"} |
| 3276 | 2026-09-03 12:44:37.493 | RelativeHumidity_Sensors | {"containerID": "DEV20260001", "rh01": "87.8", "timestamp": "2026-09-03 12:43:56.493"} |
| 3275 | 2026-09-03 12:44:37.459 | Temperature_sensors | {"containerID": "DEV20260001", "te01": "2.1", "te02": "1.0", "te03": "3.0", "te04": "3.4", "te05": "30.1", "te06": "7.5", "te07": "60.4", "timestamp": "2026-09-03 12:43:56.430"} |
| 3274 | 2026-09-03 12:43:37.344 | GetRequests | {"containerID": "DEV20260001"} |
| 3273 | 2026-09-03 12:42:37.233 | GetRequests | {"containerID": "DEV20260001"} |